Starlink 30446

operational
NORAD ID: 57872 Int'l Des: 2023-144 Owner: SPXS Country: US Constellation: starlink
LEOCIRCULAR

About Starlink 30446

Description loading...

Live Position

Loading 3D Globe...

Upcoming Passes

Altitude History

Altitude vs Time

uPlot chart will show altitude changes over time

Two-Line Element Set

1 57872U 23144J 25305.58037029 -.00001773 00000-0 -11628-3 0 9993
2 57872 43.0038 250.4647 0001157 255.5253 104.5461 15.02520821118229
Epoch: Nov 1, 2025 • Age: 7 hours

Current Status

Altitude 560.8 km
Velocity 7.58 km/s
Sub-Earth Point -11.66°S, 82.37°E
Launch Date Sep 16, 2023
Age 2.1 years
Type internet

Technical Details

Classification Payload
Mass 730.00 kg
Dry Mass 700.00 kg
Total Mass 730.00 kg
Length 0.30 m
Diameter 4.10 m
Span 29.00 m
Shape Box + pan
Manufacturer SPXS
Bus Type Starlink V2M
Phase Status In Orbit
Owner/State SPXS/US

Large Constellations

Loading constellations...